Location: Bloemendaal
(52.0288°N, 4.6944°E)
Time: 06:47:15
(UTC+00:00)

Daily predictions for brighter satellites

Satellite Brightness Start Highest point End
(mag) Time Altitude Azimuth Time Altitude Azimuth Time Altitude Azimuth
Cosmos 1606 3.4 17:26:31 10° NNW 17:30:15 61° W 17:33:58 10° S
Cosmos 1607 4.1 17:24:59 10° NW 17:31:12 60° NE 17:37:29 10° ESE
Cosmos 1459 Rocket 4.2 17:26:25 10° SSE 17:32:11 49° E 17:37:59 10° NNE
STARLINK-29 3.2 17:30:49 10° W 17:34:15 75° N 17:37:41 10° E
Cosmos 2297 4.5 17:31:24 10° SSE 17:36:17 31° ESE 17:41:10 10° NE
YAOGAN 6 2.9 17:37:37 10° S 17:41:07 71° WSW 17:44:37 10° NNW
Cosmos 1825 3.5 17:37:32 10° SSW 17:41:08 42° WNW 17:44:46 10° N
COSMO-SKYMED 1 2.7 17:38:39 10° NNE 17:42:56 53° E 17:47:11 10° S
STARLINK-52 3.2 17:39:46 10° W 17:43:12 74° N 17:46:31 11° E
CZ-2D R/B 3.6 17:39:38 10° SE 17:43:19 42° ENE 17:47:01 10° N
CZ-4 R/B 1.4 17:39:43 10° SSE 17:43:54 69° ENE 17:48:05 10° N
Envisat 3.9 17:40:21 10° S 17:45:20 56° W 17:50:22 10° NNW
Cosmos 1805 Rocket 4.0 17:42:18 10° SSE 17:46:21 38° E 17:50:24 10° NNE
Cosmos 304 Rocket 4.4 17:42:32 10° SW 17:47:18 60° WNW 17:52:07 10° NNE
Cosmos 1812 3.7 17:45:23 10° NNE 17:48:38 25° ENE 17:51:55 10° SE
Tsikada Rocket 4.3 17:43:11 10° N 17:49:18 46° ENE 17:55:25 10° SE
Sich 1 3.8 17:46:10 10° SSE 17:49:56 30° E 17:53:42 10° NNE
Cosmos 1939 Rocket 3.0 17:47:16 10° SSE 17:51:18 54° ENE 17:55:22 10° N
Cosmos 1707 Rocket 3.9 17:47:19 10° N 17:51:34 43° ENE 17:55:49 10° SE
Cosmos 1802 Rocket 4.1 17:45:32 10° SSE 17:51:38 57° E 17:57:51 10° NNE
Cosmos 1500 Rocket 3.6 17:49:11 10° S 17:53:39 89° ESE 17:58:10 10° N
Cosmos 2369 Rocket 3.7 17:50:52 10° SE 17:53:45 14° E 17:56:25 11° ENE
Cosmos 1844 Rocket 4.5 17:50:50 10° W 17:55:37 28° NW 18:00:27 10° NNE
Lacrosse 5 rocket 1.5 17:51:26 10° WSW 17:55:53 86° SSE 18:00:15 11° ENE
Meteor 1-27 Rocket 4.1 17:50:49 10° N 17:56:01 39° ENE 18:01:13 10° SE
Cosmos 2263 Rocket 4.5 17:53:24 10° NW 17:56:20 14° NNW 17:59:18 10° NNE
Cosmos 2082 Rocket 3.1 17:51:05 10° NW 17:56:34 55° WSW 18:02:04 10° S
Cosmos 1992 Rocket 4.2 17:52:17 10° S 17:57:20 51° ESE 18:02:26 10° NNE
STARLINK-80 3.8 17:58:50 10° SW 18:02:32 50° SSE 18:05:24 16° E
Cosmos 1743 Rocket 4.0 18:01:29 10° SSW 18:05:50 66° WNW 18:10:12 10° N
Cosmos 292 Rocket 3.9 18:02:45 10° S 18:07:24 52° ESE 18:12:05 10° NNE
Cosmos 1354 Rocket 4.3 18:03:11 10° NNW 18:08:31 75° WSW 18:13:46 10° SSE
STARLINK-60 3.0 18:06:53 10° WNW 18:10:13 85° NNE 18:12:25 19° E
Cosmos 1238 Rocket 4.0 18:04:24 10° S 18:10:32 68° E 18:17:11 10° NNE
CZ-2C R/B 4.1 18:05:38 10° ESE 18:10:39 31° ENE 18:15:39 10° N
H-2A R/B 2.8 18:07:32 10° SE 18:12:19 35° ENE 18:17:12 10° N
Meteor 2-3 Rocket 4.2 18:07:48 10° SSW 18:13:21 65° WNW 18:19:00 10° N
STARLINK-43 3.3 18:11:39 10° WSW 18:15:22 83° SSE 18:17:45 21° ENE
HJ-1C 3.5 18:14:09 10° SE 18:17:20 47° ENE 18:20:33 10° N
SL-27 R/B 2.8 18:14:36 10° N 18:17:49 39° ENE 18:19:54 18° ESE
Cosmos 2016 Rocket 3.9 18:12:47 10° S 18:18:51 73° E 18:24:59 10° NNE
SJ 16-02 3.1 18:25:22 10° N 18:28:00 15° NE 18:28:15 15° NE
Ariane Rocket 3.0 18:23:45 10° SSE 18:28:47 61° ENE 18:33:50 10° N
DMSP B5D1-3 4.5 18:24:29 10° NNE 18:29:36 63° ESE 18:34:42 10° S
YAOGAN 1 3.3 18:25:29 10° S 18:29:44 55° W 18:34:01 10° NNW
Cosmos 2297 Rocket 4.2 18:27:50 10° NNW 18:30:42 14° NNE 18:33:07 11° NE
SKYMED 2 4.3 18:26:47 10° N 18:31:04 56° WNW 18:35:17 10° SSW
CSL-04 Rocket 4.1 18:25:53 10° S 18:31:25 67° WSW 18:36:55 10° NNW
USA 234 3.4 18:27:26 19° E 18:32:14 64° NNE 18:38:41 10° WNW
Cosmos 921 Rocket 3.7 18:28:38 10° SSE 18:32:40 33° ESE 18:35:46 15° NE
STARLINK-61 4.5 18:29:28 10° SSW 18:32:54 30° SE 18:33:55 26° ESE
ADEOS Rocket 3.6 18:25:33 10° NNE 18:33:11 66° ESE 18:40:55 10° S
USA 229 DEB 4.0 18:30:11 10° S 18:36:13 40° ESE 18:40:52 18° ENE
USA 229 4.0 18:30:19 10° S 18:36:20 40° ESE 18:40:55 18° ENE
Cosmos 2278 Rocket 3.3 18:31:06 10° WSW 18:36:29 44° NW 18:41:55 10° NNE
Cosmos 2233 Rocket 4.0 18:30:54 10° SSE 18:36:50 54° E 18:42:50 10° NNE
SJ-11-01 4.2 18:33:25 10° SSE 18:38:03 66° ENE 18:42:42 10° N
ARGOS 3.4 18:33:07 10° SE 18:38:16 46° ENE 18:43:27 10° N
Cosmos 1633 Rocket 3.0 18:36:51 10° S 18:41:06 58° E 18:45:22 10° NNE
STARLINK-48 3.5 18:38:23 10° SW 18:42:14 60° SSE 18:43:33 37° E
Cosmos 1666 Rocket 3.5 18:38:41 10° S 18:43:08 73° E 18:47:38 10° NNE
NOSS 3-1 (A) 4.2 18:38:59 10° S 18:43:36 27° ESE 18:44:29 26° E
Lacrosse 4 Rocket 1.3 18:40:37 10° SSW 18:44:49 78° SE 18:47:52 19° NE
SJ-6B 3.1 18:45:54 38° E 18:46:20 40° ENE 18:49:53 10° N
Cosmos 2227 Rocket 4.1 18:45:20 10° NNW 18:48:28 15° NNE 18:50:10 13° NE
SL-4 R/B 3.8 18:46:12 10° W 18:50:24 32° SW 18:53:46 13° SSE
Cosmos 44 3.1 18:46:16 10° NW 18:50:36 61° NE 18:52:10 37° ESE
Resurs 1-3 4.5 18:52:30 30° ENE 18:52:30 30° ENE 18:56:04 10° N
SPOT 3 Rocket 3.8 18:50:01 27° ESE 18:52:25 45° ENE 18:57:23 10° N
CRYOSAT 2 4.3 18:47:52 10° S 18:52:46 90° E 18:57:43 10° N
Cosmos 1633 3.9 18:49:28 10° SW 18:52:52 40° WNW 18:56:19 10° N
Cosmos 1862 3.5 18:49:01 10° SSW 18:53:01 73° WNW 18:57:01 10° N
Cosmos 724 4.2 18:47:19 10° NW 18:53:08 68° NE 18:56:12 28° ESE
Resurs 01 Rocket 2.9 18:56:16 24° NE 18:56:16 24° NE 18:59:02 10° N
Cosmos 2242 Rocket 3.7 18:52:13 10° N 18:56:39 53° ENE 18:58:26 32° SE
FALCON 9 DEB 3.0 18:54:24 10° WNW 18:57:52 86° SSW 18:58:18 66° ESE
STARLINK-26 3.1 18:58:08 10° WSW 19:01:35 64° SSE 19:01:39 64° SSE
CENTAUR R/B 3.9 19:01:51 10° WNW 19:08:17 35° N 19:12:43 21° NE
Cosmos 1943 Rocket 2.1 19:04:40 10° SSW 19:10:09 60° ESE 19:13:25 24° NE
MOS 1 4.3 19:05:23 10° SSE 19:11:04 86° WSW 19:16:47 10° NNW
STARLINK-29 3.1 19:07:42 10° WNW 19:11:00 80° WSW 19:11:00 80° WSW
STARLINK-75 4.3 19:08:42 10° SW 19:11:02 33° SSW 19:11:02 33° SSW
FREGAT/IRIS 4.2 19:14:43 26° NNW 19:14:43 26° NNW 19:16:08 10° NNW
ATLAS 3B R/B 3.9 19:08:05 10° WNW 19:13:53 30° N 19:17:39 19° NE
STARLINK-33 4.4 19:11:43 10° SW 19:13:44 30° SSW 19:13:44 30° SSW
STARLINK-66 4.4 19:13:21 10° SW 19:15:21 30° SSW 19:15:21 30° SSW
STARLINK-55 4.4 19:15:04 10° SW 19:17:01 30° SSW 19:17:01 30° SSW
STARLINK-28 4.4 19:16:40 10° SW 19:18:38 31° SSW 19:18:38 31° SSW
STARLINK-52 3.5 19:16:41 10° WNW 19:19:36 62° W 19:19:36 62° W
Cosmos 2297 4.3 19:14:36 10° SW 19:20:11 57° NW 19:25:46 10° NNE
Cosmos 1470 Rocket 3.4 19:18:37 10° S 19:22:57 85° ESE 19:27:22 10° NNE
Cosmos 1812 4.5 19:21:00 10° NNW 19:24:30 33° W 19:27:59 10° SSW
Meteor 1-18 Rocket 4.3 19:19:22 10° N 19:25:17 61° ENE 19:26:38 49° ESE
Cosmos 1862 Rocket 4.3 19:21:53 10° NNW 19:26:05 51° W 19:30:17 10° S
ARGOS Delta rocket 3.4 19:27:54 77° ENE 19:27:55 77° ENE 19:32:20 10° N
Cosmos 1898 Rocket 3.8 19:24:27 10° NNW 19:29:10 47° NE 19:29:10 47° NE
Cosmos 1833 4.1 19:25:06 10° NNW 19:30:55 87° ENE 19:32:36 49° SSE
COSMOS 2487 4.5 19:28:26 10° NNW 19:29:43 20° N 19:29:43 20° N
Cosmos 2285 Rocket 4.1 19:26:04 10° NNW 19:32:25 77° WSW 19:36:24 25° SSE
Cosmos 44 Rocket 4.0 19:28:58 10° NW 19:32:58 38° NNE 19:32:58 38° NNE
Timation 2 Rocket 4.3 19:27:26 10° NNW 19:34:09 55° NE 19:35:24 49° E
Lacrosse 5 rocket 2.2 19:31:03 10° W 19:35:26 47° N 19:35:54 45° N
Cosmos 2369 Rocket 2.0 19:31:09 10° SSW 19:36:47 74° ESE 19:38:21 49° NE
Cosmos 1464 Rocket 4.0 19:30:39 10° S 19:36:53 62° E 19:43:11 10° NNE
USA 267 3.7 19:38:57 39° SSE 19:38:57 39° SSE 19:44:22 10° SSW
NOSS 3-1 (C) 3.2 19:33:13 10° SW 19:38:51 81° SE 19:40:53 46° NE
STARLINK-80 4.2 19:36:58 10° W 19:39:53 50° W 19:39:53 50° W
Cosmos 1703 Rocket 3.8 19:37:35 10° N 19:41:22 64° N 19:41:22 64° N
Nadezhda 4 Rocket 3.9 19:36:58 10° N 19:43:12 63° ENE 19:43:40 61° E
CZ-2C R/B 3.8 19:44:51 12° S 19:50:13 59° W 19:55:57 10° NNW
Cosmos 2263 4.4 19:44:33 10° SSW 19:49:08 55° S 19:49:08 55° S
H-2A R/B 3.1 19:46:30 10° S 19:51:37 47° W 19:56:52 10° NNW
SL-08 RB Rocket 4.0 19:52:45 60° WSW 19:52:59 61° WSW 19:57:27 10° NNW
Terra 4.3 20:04:33 11° NNE 20:04:33 11° NNE 20:04:44 10° NNE
Okean 1-7 4.3 20:01:08 10° NNW 20:03:50 36° NNW 20:03:50 36° NNW
SJ 16-02 2.8 20:02:54 10° NNW 20:05:16 31° NNW 20:05:16 31° NNW
Meteor 1-19 Rocket 4.3 20:04:48 10° NNW 20:10:36 81° WNW 20:10:36 81° WNW
USA 234 3.1 20:14:46 73° S 20:15:13 76° SSW 20:21:47 10° WNW
Cosmos 2297 Rocket 3.5 20:11:25 10° NNW 20:14:56 29° NNE 20:14:56 29° NNE
NOSS 3-2 (C) 4.4 20:12:10 10° NW 20:18:48 43° NNE 20:19:19 43° NE
NOSS 3-2 (A) 4.2 20:14:29 10° NW 20:21:23 52° NNE 20:21:36 52° NE
Cosmos 1092 Rocket 4.3 20:15:03 10° N 20:20:05 57° NNE 20:20:05 57° NNE
Lacrosse 4 Rocket 3.6 20:20:35 10° W 20:24:02 23° NW 20:24:14 23° NNW
USA 229 DEB 3.9 20:20:18 10° WSW 20:26:54 65° NW 20:28:23 52° NNE
USA 229 3.9 20:20:24 10° WSW 20:27:00 66° NW 20:28:25 53° NNE
Resurs 01 Rocket 3.6 20:33:50 26° NW 20:33:50 26° NW 20:36:00 10° NNW
NOSS 3-1 (A) 4.0 20:28:02 10° SW 20:32:01 48° WSW 20:32:01 48° WSW
Cosmos 2227 Rocket 3.7 20:28:54 10° NNW 20:32:00 28° N 20:32:00 28° N
Meteor 2-4 Rocket 4.5 20:29:24 10° NNW 20:33:39 50° NNW 20:33:39 50° NNW
Cosmos 1943 Rocket 3.7 20:49:15 10° WSW 20:54:16 33° NW 20:55:04 31° NNW
CENTAUR R/B 3.5 20:53:16 10° NW 20:59:54 51° NNE 20:59:54 51° NNE
ATLAS 3B R/B 3.7 21:00:00 10° NW 21:04:53 36° N 21:04:53 36° N
Lacrosse 5 rocket 4.5 21:10:46 10° WNW 21:11:33 15° WNW 21:11:33 15° WNW
USA 238 DEB 4.4 21:09:44 10° NW 21:14:48 50° NW 21:14:48 50° NW
USA 238 4.5 21:09:50 10° NW 21:14:53 50° NW 21:14:53 50° NW
Cosmos 2369 Rocket 4.0 21:16:30 10° W 21:20:16 27° WNW 21:20:16 27° WNW
